Погода в Старице

Россия / Томская область     58°07′55″N   80°34′32″E
темп.,
°C
ветер,
м/с
пор.,
м/с
влажн.,
%
обл.,
%
осадки,
мм/ч
давл.,
гПа
погр.,
м
18 октября, пн
пн1801:00+3ююз2794100 0.0 1021144
04:00+4ююз268985 0.0 1021161
07:00+2ююз2694100 0.0 1020133
10:00+3ююз298862 0.0 1020273
13:00+8зюз47685 0.0 1020684
16:00+9зюз3662100 0.0 1020946
19:00+4ююз27825 0.0 1021136
22:00+3ююз298995 0.0 1021192
19 октября, вт
вт1901:00+2ююз2991100 0.0 1021184
04:00+3ююз3987100 0.0 1021223
07:00+3ююз3983100 0.0 1021234
10:00+5ююз4127874 0.0 1020345
13:00+9ююз51368100 0.0 1020577
16:00+10ююз4116586 0.0 1019689
19:00+8ююз41280100 0.0 1019359
22:00+7ююз4128588 0.0 1019352
20 октября, ср
ср2001:00+7ююз4128466 0.0 1019343
04:00+6ююз41284100 0.0 1018367
07:00+5ю31186100 0.0 1018297
10:00+5ю31277100 0.0 1017362
13:00+8ююз41059100 0.0 1016522
16:00+9ю4959100 0.0 1014615
19:00+5ю2977100 0.0 1014204
22:00+4ю288270 0.0 1014185
21 октября, чт
чт2101:00+3ю228857 0.0 101339
04:00+2ю239064 0.0 101258
07:00+2ююв2590100 0.0 1011107
10:00+3ююв3982100 0.0 1010207
13:00+8ююв3761100 0.0 1008318
16:00+9ююв3961100 0.0 1007426
19:00+5ююв31178100 0.0 1006245
22:00+6ю3127678 0.0 1006327
22 октября, пт
пт2201:00+3ю298796 0.0 1005174
04:00+3ююз2788100 0.0 1006136
07:00+4ю2982100 0.0 1007197
10:00+5юз41282100 0.0 1008552
13:00+8юз511715 0.0 10081090
16:00+8ююз510605 0.0 10081327
19:00+5ююз411655 0.0 1008602
22:00+4ю4126772 0.0 1007801